FENGYUN 1C DEB

Satellite information

Favourite Embed

Satellite Type and Status

DEBRISIN ORBIT

Key statistics

Satellite FENGYUN 1C DEB at a glance.

Uptime

9664

Days in orbit

Revolutions

≈ 14.1

Per day

Orbit

SSO

Sun Synchronous Orbit

Inclination

98.8

Latest

Satellite identification and parameters

Extended collection of information and parameters for FENGYUN 1C DEB.

Object identification

Identified? True

Debris? True

Object name: FENGYUN 1C DEB

International designator: 1999-025BSA

Object number (NORAD): 31370

Object ID (CCSDS): 31370

Country: PEOPLES REPUBLIC OF CHINA (PRC)

Current information (Y/N): Y

RCS size: SMALL

Orbital parameters

Period: 102.156 minutes

Inclination: 98.754 deg

SMA: 7238.843 km

Apoapsis: 886.19 km

Periapsis: 835.225 km

RAAN: 297.8407 deg

Eccentricy: 0.0035202

Argument of periapsis: 79.2981 deg

Mean anomaly: 281.215 deg

Mean motion: 14.09610305 rev/day

Mean motion (dot): 0.00000947 rev/day2

B* drag term: 0.00056199 1/REarth

Two-line elements (TLE)

Creation date: Oct. 23, 2025, 10:26 p.m.

Reference frame: TEME

Reference center: EARTH

Epoch: Oct. 23, 2025, 10:33 a.m. UTC

TLE line 0: 0 FENGYUN 1C DEB

TLE line 1: 1 31370U 99025BSA 25296.43971061 .00000947 00000-0 56199-3 0 9997

TLE line 2: 2 31370 98.7540 297.8407 0035202 79.2981 281.2150 14.09610305955854

Live tracking on map

Real-time ground track for satellite FENGYUN 1C DEB.

In-orbit conjunctions

A list of the most updated potential collisions computed for object FENGYUN 1C DEB.

Target Orbit TCA Probability of collision Miss distance Type
COSMOS 252 DEB LEO 2024-09-22 14:03:24 0.0001770961 115.0 (m) DEBRIS

Associated space launch

Chinese polar orbiting meteorological satellite

FENGYUN 1C DEB was lifted into orbit during the mission ‘Long March 4B | Feng Yun 1C’, on board a Long March 4B space rocket.

The launch took place on May 10, 1999, 1:33 a.m. from Launch Complex 7.

For more information about the launch, click the button.

Launch to space Long March 4B | Feng Yun 1C
Long March 4B | Feng Yun 1C

Agency: N/A

Status: Launch Successful

Launch date: May 10, 1999, 1:33 a.m. UTC

Rocket: Long March 4B

Launch pad: Launch Complex 7

Location: Taiyuan Satellite Launch Center, People's Republic of China

...

Latest news about this satellite

There are no fresh news available about this satellite. Check back as we update our databases every day.


Newsletter sign-up

Weekly statistics, charts and insights to help you stay on top of the space industry.